QZS-3 (QZSS/PRN 199)

Last updated on Thu Jul 03 2025 00:03:25 GMT+0000 (Coordinated Universal Time)

1 42917U 17048A 25183.63080230 -.00000341 00000+0 00000+0 0 9991 2 42917 0.0543 187.2865 0001966 276.1994 171.4640 1.00266646 28750
UTC large
Height (km)
Speed (km/s)
/
Latitude / Longitude
Inclination (degrees)
Orbital Period (minutes)
Azimuth
Elevation
Range (km)
Doppler Factor

Next 0 passes for location: London (51.5072 / 0.1276)

Sorry there are no passes over London.